Regional Weather Roundup
Issued by NWS

Home | Current Version | Previous Version | Text Only | Print | Product List | Glossary On
Versions: 1 2 3 4 5 6 7 8 9 10 11 12 13 14 15 16 17 18 19 20 21 22 23 24 25 26 27 28 29 30 31 32 33 34 35 36 37 38 39 40 41 42 43 44 45 46 47 48 49 50
000
ASUS45 KBOU 290610
RWRCO

WEATHER ROUNDUP FOR COLORADO
NATIONAL WEATHER SERVICE DENVER/BOULDER CO
1200 AM MDT SUN MAR 29 2020

NOTE: "FAIR" INDICATES FEW OR NO CLOUDS BELOW 12000 FEET WITH NO
SIGNIFICANT WEATHER AND/OR OBSTRUCTIONS TO VISIBILITY.

COZ001>005-013-030-031-290700-
...NORTHWEST COLORADO...

CITY           SKY/WX    TMP DP  RH WIND       PRES   REMARKS
CRAIG          CLOUDY    33  21  61 W9        30.10R WCI  25
HAYDEN         CLOUDY    32  19  58 CALM      30.12R
MEEKER         CLOUDY    30  22  72 NE5       30.11S WCI  25
RANGELY        MOCLDY    31  27  85 CALM      30.10F
RABBIT EARS PA FLURRIES N/A N/A N/A W3        30.06R
STEAMBOAT SPGS CLOUDY    28  22  81 E7        30.09R WCI  20
WALDEN         NOT AVBL
$$

COZ006>008-011-290700-
...WEST CENTRAL VALLEYS...

CITY           SKY/WX    TMP DP  RH WIND       PRES   REMARKS
GRAND JUNCTION FAIR      34  25  69 E9        30.11R WCI  27
MONTROSE       FAIR      31  18  58 SE10      30.15F WCI  22
EAGLE          FAIR      26  17  68 E7        30.15R WCI  18
RIFLE          CLOUDY    35  21  56 SE8       30.13R WCI  29
DELTA          FAIR      33  17  53 E3        30.15S
NUCLA          CLOUDY    34  19  55 E9        30.15S WCI  26
$$

COZ017>023-064>068-290700-
...SOUTHWEST COLORADO...

CITY           SKY/WX    TMP DP  RH WIND       PRES   REMARKS
DURANGO        FAIR      31  13  47 E3        30.12S
CORTEZ         FAIR      25  17  72 NE5       30.13R WCI  19
PAGOSA SPRINGS FAIR      28  17  62 NE5       30.13S WCI  23
TELLURIDE      CLOUDY    21  12  68 SE7       30.16S WCI  13
WOLF CREEK PAS FAIR      10   9  92 S14       30.14S WCI  -5
$$

COZ009-010-012-014-032>034-037-058>063-290700-
...CENTRAL COLORADO...

CITY           SKY/WX    TMP DP  RH WIND       PRES   REMARKS
ASPEN          FAIR      22  12  65 S7        30.11S WCI  13
BUENA VISTA    FAIR      27   7  43 NW7       30.10S WCI  19
COPPER MTN     FAIR      14   7  73 MISG      30.06R
BERTHOUD PASS  NOT AVBL
DAKOTA HILL    FAIR      12   3  67 NW18G31   29.99R WCI  -5
COTTONWOOD PAS FAIR      21   9  58 NW15G22   30.06F WCI   8
GUNNISON       FAIR      21  14  74 N6        30.15R WCI  13
GRANBY         CLOUDY    19  15  84 SE6       30.11R WCI  11
KREMMLING      CLOUDY    30  19  64 N3        30.12R
LEADVILLE      FAIR      12   4  70 NE6       30.07S WCI   3
MONARCH PASS   FOG       10   7  85 W25       30.17S VSB<1/4 WCI -10
SALIDA         FAIR      32  10  40 W8        30.18R WCI  24
SUNLIGHT       NOT AVBL
WILKERSON PASS FAIR      14   1  57 W10G22    30.07S WCI   1
$$

COZ069>075-290700-
...SAN LUIS VALLEY/SANGRE DE CRISTO MOUNTAINS...

CITY           SKY/WX    TMP DP  RH WIND       PRES   REMARKS
ALAMOSA        FAIR      28   5  37 N5        30.12R WCI  23
DEL NORTE      FAIR      19   4  51 N5        30.12R WCI  13
LA VETA PASS   FAIR      19   5  53 SW9       30.08S WCI   9
SAGUACHE       FAIR      25  12  58 NW16      30.12S WCI  12
$$

COZ035-036-038>040-290700-
...NORTHERN COLORADO FRONT RANGE...

CITY           SKY/WX    TMP DP  RH WIND       PRES   REMARKS
DENVER INTL AP FAIR      36  17  46 SW10      30.03R
AURORA         PTCLDY    31  17  55 S10       30.04R WCI  22
WATKINS        NOT AVBL
ERIE           FAIR      35  18  50 CALM      30.07S
BOULDER        FAIR      41  14  33 S3        30.02R
CENTENNIAL     FAIR      35  14  42 SW10      30.04R WCI  27
BROOMFIELD     FAIR      37  12  35 W9        30.03R
FORT COLLINS   FAIR      36  17  46 E5        30.03R
LONGMONT       FAIR      42  14  33 SW3       30.03R
$$

COZ041-046-047-076>085-087-088-290700-
...PIKES PEAK/PALMER DIVIDE AND SOUTHERN FOOTHILLS...

CITY           SKY/WX    TMP DP  RH WIND       PRES   REMARKS
COLO. SPRINGS  FAIR      32  12  43 E6        30.07R WCI  26
A. F. ACADEMY  FAIR      32  11  41 SE8       30.04S WCI  25
SCHRIEVER AFB  NOT AVBL
CHEYENNE MTN   FAIR      33   3  28 NW3       30.01R
ELLICOTT       FAIR      28  14  57 CALM      30.08R
FALCON         FAIR      29  11  47 W9        30.08R WCI  20
FORT CARSON    FAIR      34  11  38 W9        30.04S WCI  27
LIMON          FAIR      26  20  77 CALM      30.05R
MONUMENT HILL  FAIR      28  12  50 SW8       30.07R WCI  20
CANON CITY     FAIR      36  10  35 NW9       30.06S
WALSENBURG     NOT AVBL
TRINIDAD       FAIR      27   2  34 W7        30.08R WCI  19
$$

COZ042>045-048>051-090-091-290700-
...NORTHEAST COLORADO...

CITY           SKY/WX    TMP DP  RH WIND       PRES   REMARKS
GREELEY        FAIR      31  23  72 SW6       30.04R WCI  25
AKRON          MOCLDY    36  26  67 W12       30.00R
BURLINGTON     FAIR      32  26  78 SW10      30.02R WCI  24
WRAY           FAIR      32  28  86 W9        29.99R WCI  24
YUMA           NOT AVBL
STERLING       FAIR      41  28  60 NW16      29.98R
HOLYOKE        FAIR      36  30  80 W12       29.97R
FORT MORGAN    MOCLDY    38  22  52 NW14      30.02R
$$

COZ086-089-092>099-290700-
...SOUTHEAST COLORADO...

CITY           SKY/WX    TMP DP  RH WIND       PRES   REMARKS
PUEBLO         FAIR      30  15  53 NW5       30.07R WCI  25
LA JUNTA       FAIR      37  20  50 SW7       30.06R
LAMAR          FAIR      27  22  81 SW6       30.04R WCI  20
SPRINGFIELD      N/A     28  18  66 SW8       30.07R WCI  20
$$




USA.gov is the U.S. government's official web portal to all federal, state and local government web resources and services.